星链-35116(STARLINK-35116)

导读

STARLINK-35116是美国SpaceX公司星链(Starlink)星座的一员,于2025年10月19日由美国发射入轨。作为第二代星链卫星,它运行在近地轨道,配备相控阵天线与激光星间链路,可为全球偏远地区提供高速低延迟宽带互联网服务。星链星座计划部署数万颗卫星,该卫星的成功入轨进一步扩展了星座的全球覆盖能力,助力实现全球无缝网络连接的目标,目前处于在轨运行状态。

基本信息
目录编号:
66078
目录名称:
STARLINK-35116
国际标识:
2025-235W
轨道中心:
EARTH
卫星名称:
星链-35116
卫星全名:
星链-35116(STARLINK-35116)
卫星状态:
在轨 (已飞行321 天)
发射日期:
2025-10-19 UTC
国别 :
美国 (US)
星等 :
--
轨道信息
数据来源 国际轨道数据 AOE轨道数据
星历时间 2026-09-05T16:59:20+0800
9小时前
查看轨道信息
2026-09-04T23:00:00+0800
1天前
查看轨道信息
半长轴 6840.881km 6840.931km
偏心率 0.0001458 0.0001704
轨道倾角 53.157° 53.158°
近地点辐角 90.546° 60.113°
升交点赤经 128.410° 131.911°
平近点角 269.571° 117.407°
近地点 461.746km 461.628km
远地点 463.742km 463.96km
周期 93.849分钟 93.850分钟
每日圈数 15.343866 15.343695
详细信息
固有亮度:
5
最大亮度:
2.5
卫星平台:
Starlink V1.0
覆盖范围:
全球
运营商:
太空探索技术公司
运营商所在国:
美国
制造商(研发单位):
太空探索技术公司
制造商所在国:
美国
使用方式:
暂无
卫星简介
Starlink 计划是 SpaceX 推出的全球卫星互联网项目,通过发射低轨道卫星,为全球尤其是偏远地区提供高速、低延迟的互联网服务。自 2019 年起,Starlink 已部署数千颗卫星,旨在缩小全球数字鸿沟,推动互联网普及。该项目还为军事、航空等行业提供通信支持,带来广泛经济效益。
2D轨道图
3D轨道图
轨道高度分析图
轨道倾角分析图
轨道综合分析图
查看轨道综合分析图
交会数据列表
事件ID 空间交会对象 最接近时刻(TCA) 交会距离 交会风险概率(CRP) 交会风险指数(CRI) 操作
CDM_260907-174306-586306-607821
2026-09-07T
17:43:15+0000
0.196 km
中距离
5.674943E-4 高风险 0.9
CDM_260907-090706-586306-607821
2026-09-07T
09:07:24+0000
0.584 km
远距离
7.061142E-5 中风险 0.72
CDM_260905-204906-323706-607821
2026-09-05T
20:49:09+0000
1.604 km
极远距离
3.013966E-6 低风险 0.45
CDM_260907-073306-586306-607821
2026-09-07T
07:33:36+0000
1.955 km
极远距离
1.536932E-6 低风险 0.39
CDM_260907-191706-586306-607821
2026-09-07T
19:17:02+0000
2.418 km
极远距离
9.867665E-7 极低风险 0.35
CDM_260907-160906-586306-607821
2026-09-07T
16:09:27+0000
2.484 km
极远距离
9.421328E-7 极低风险 0.34
CDM_260907-002305-081706-607821
2026-09-07T
00:23:05+0000
2.887 km
极远距离
8.207099E-7 极低风险 0.33
CDM_260907-104106-586306-607821
2026-09-07T
10:41:11+0000
2.898 km
极远距离
7.57744E-7 极低风险 0.33
CDM_260901-183505-816906-607821
2026-09-01T
18:35:09+0000
2.688 km
极远距离
5.882383E-7 极低风险 0.3